contact:dominique.lefevre@mio.osupytheas.fr, maurice.libes@osupytheas.fr, didier.mallarino@osupytheas.fr
Project:EMSO http://www.emso-fr.org/EMSO-France
Depth: 2436.0 m
Title:EMSO Ligure Ouest : Data MII capteur AQUADOPP
Date,Latitude,Longitude,X_East,Y_North,Z_Up,Amplitude_X,Amplitude_Y,Amplitude_Z,Batterie,SoundSpeed,Heading,Pitch,Roll,Pressure,TIS,Speed,Direction
, degrees North, degrees East, m.s-1, m.s-1,m.s-1, 1, 1, 1, Volt, m.s-1, degree, degree, degree, dbar, degree_C, m.s-1, degree
2021-05-06T00:04:03,42.805,6.029,0.025,-0.002,0.012,103.0,102.0,101.0,13.3,1505.2,324.4,-0.8,1.8,2470.518,13.28,0.025,94.6
2021-05-06T00:07:03,42.805,6.029,0.055,-0.024,0.005,103.0,103.0,101.0,13.3,1505.2,328.5,-0.8,1.8,2470.517,13.28,0.06,113.6
2021-05-06T00:10:03,42.805,6.029,0.03,-0.018,0.037,102.0,102.0,102.0,13.4,1505.2,329.7,-0.7,1.8,2470.546,13.28,0.034,121.0
2021-05-06T00:13:03,42.805,6.029,0.021,-0.004,-0.003,104.0,104.0,102.0,13.4,1505.2,326.7,-0.7,1.8,2470.514,13.28,0.021,100.8
2021-05-06T00:16:03,42.805,6.029,0.011,-0.035,-0.025,103.0,103.0,101.0,13.4,1505.2,324.0,-0.8,1.8,2470.534,13.28,0.036,162.6
2021-05-06T00:19:03,42.805,6.029,0.023,-0.024,0.004,102.0,103.0,102.0,13.3,1505.2,326.9,-0.7,1.8,2470.5,13.28,0.033,136.2
2021-05-06T00:22:03,42.805,6.029,0.028,-0.033,0.002,103.0,103.0,100.0,13.4,1505.2,326.2,-0.8,1.8,2470.492,13.28,0.043,139.7
2021-05-06T00:25:03,42.805,6.029,0.036,-0.02,0.014,103.0,103.0,101.0,13.3,1505.2,324.2,-0.8,1.9,2470.537,13.28,0.041,119.1
2021-05-06T00:28:03,42.805,6.029,0.036,-0.022,0.014,102.0,103.0,101.0,13.4,1505.2,325.0,-0.8,1.8,2470.542,13.28,0.042,121.4
2021-05-06T00:31:03,42.805,6.029,0.03,-0.008,0.028,103.0,102.0,101.0,13.3,1505.2,324.6,-0.7,1.8,2470.523,13.28,0.031,104.9
2021-05-06T00:34:03,42.805,6.029,0.049,-0.045,0.012,102.0,103.0,101.0,13.4,1505.2,327.7,-0.8,1.8,2470.522,13.28,0.066,132.6
2021-05-06T00:37:03,42.805,6.029,0.03,-0.028,0.011,102.0,103.0,101.0,13.4,1505.2,327.4,-0.8,1.8,2470.535,13.28,0.041,133.0
2021-05-06T00:40:03,42.805,6.029,0.045,-0.017,0.027,102.0,102.0,100.0,13.4,1505.2,326.1,-0.7,1.8,2470.5,13.28,0.048,110.7
2021-05-06T00:43:03,42.805,6.029,0.036,-0.018,0.042,102.0,102.0,101.0,13.4,1505.2,327.5,-0.8,1.8,2470.499,13.28,0.04,116.6
2021-05-06T00:46:03,42.805,6.029,0.022,-0.031,0.025,103.0,103.0,100.0,13.4,1505.2,327.8,-0.7,1.9,2470.504,13.28,0.038,144.6
2021-05-06T00:49:03,42.805,6.029,0.036,-0.036,0.01,101.0,102.0,102.0,13.4,1505.2,325.9,-0.7,1.8,2470.566,13.28,0.05,135.0
2021-05-06T00:52:03,42.805,6.029,0.038,-0.023,0.021,101.0,102.0,101.0,13.3,1505.2,327.7,-0.7,1.8,2470.535,13.28,0.044,121.2
2021-05-06T00:55:03,42.805,6.029,0.028,-0.022,0.031,102.0,102.0,102.0,13.4,1505.2,326.1,-0.8,1.8,2470.533,13.28,0.035,128.2
2021-05-06T00:58:03,42.805,6.029,0.024,-0.033,0.012,102.0,103.0,100.0,13.4,1505.2,326.4,-0.7,1.9,2470.523,13.28,0.04,144.0
2021-05-06T01:04:03,42.805,6.029,0.028,-0.024,0.036,103.0,104.0,101.0,13.4,1505.2,328.6,-0.7,1.9,2470.548,13.28,0.036,130.6
2021-05-06T01:07:03,42.805,6.029,0.047,-0.026,0.016,101.0,104.0,101.0,13.4,1505.2,326.5,-0.8,1.8,2470.576,13.28,0.053,118.9
2021-05-06T01:10:03,42.805,6.029,0.051,-0.045,0.014,103.0,103.0,101.0,13.4,1505.2,326.6,-0.7,1.8,2470.589,13.28,0.068,131.4
2021-05-06T01:13:03,42.805,6.029,0.039,-0.041,-0.009,102.0,104.0,101.0,13.4,1505.2,327.8,-0.8,1.8,2470.535,13.28,0.056,136.4
2021-05-06T01:16:03,42.805,6.029,0.02,-0.031,0.004,102.0,103.0,100.0,13.4,1505.2,324.2,-0.8,1.8,2470.552,13.28,0.036,147.2
2021-05-06T01:19:03,42.805,6.029,0.04,-0.036,-0.01,103.0,103.0,101.0,13.4,1505.2,324.1,-0.7,1.8,2470.547,13.28,0.053,132.0
2021-05-06T01:22:03,42.805,6.029,0.029,-0.005,-0.001,102.0,103.0,101.0,13.3,1505.2,324.2,-0.8,1.8,2470.576,13.28,0.029,99.8
2021-05-06T01:25:03,42.805,6.029,0.046,-0.02,0.019,102.0,104.0,100.0,13.4,1505.2,324.0,-0.8,1.8,2470.57,13.28,0.05,113.5
2021-05-06T01:28:03,42.805,6.029,0.02,-0.024,0.014,104.0,101.0,101.0,13.4,1505.2,324.4,-0.8,1.9,2470.536,13.28,0.031,140.2
2021-05-06T01:31:03,42.805,6.029,0.031,-0.032,-0.009,102.0,103.0,101.0,13.3,1505.2,324.5,-0.8,1.8,2470.539,13.28,0.044,135.9
2021-05-06T01:34:03,42.805,6.029,0.033,-0.04,0.025,103.0,103.0,101.0,13.3,1505.2,327.5,-0.8,1.8,2470.55,13.28,0.051,140.5
2021-05-06T01:37:03,42.805,6.029,0.051,-0.028,0.012,102.0,103.0,101.0,13.4,1505.2,326.4,-0.7,1.8,2470.518,13.28,0.058,118.8
2021-05-06T01:40:03,42.805,6.029,0.024,-0.029,-0.014,102.0,104.0,101.0,13.3,1505.2,327.4,-0.7,1.8,2470.586,13.28,0.037,140.4
2021-05-06T01:43:03,42.805,6.029,0.033,-0.036,0.003,104.0,103.0,101.0,13.3,1505.2,327.5,-0.7,1.8,2470.584,13.28,0.048,137.5
2021-05-06T01:46:03,42.805,6.029,0.038,-0.036,0.02,101.0,104.0,101.0,13.3,1505.2,325.0,-0.8,1.8,2470.593,13.28,0.052,133.5
2021-05-06T01:49:03,42.805,6.029,0.031,-0.02,-0.01,102.0,103.0,101.0,13.4,1505.2,327.5,-0.7,1.8,2470.548,13.28,0.036,122.8
2021-05-06T01:52:03,42.805,6.029,0.062,-0.022,0.03,103.0,103.0,100.0,13.4,1505.2,325.2,-0.7,1.8,2470.557,13.28,0.065,109.5
2021-05-06T01:55:03,42.805,6.029,0.058,-0.029,0.007,103.0,103.0,102.0,13.3,1505.2,323.7,-0.8,1.8,2470.565,13.28,0.064,116.6
2021-05-06T01:58:03,42.805,6.029,0.038,-0.014,0.0,103.0,102.0,101.0,13.3,1505.2,325.9,-0.8,1.8,2470.579,13.28,0.04,110.2
2021-05-06T02:04:03,42.805,6.029,0.023,-0.025,-0.006,102.0,103.0,101.0,13.4,1505.2,325.0,-0.8,1.8,2470.574,13.28,0.033,137.4
2021-05-06T02:07:03,42.805,6.029,0.035,-0.014,0.043,102.0,104.0,101.0,13.4,1505.2,324.0,-0.8,1.8,2470.606,13.28,0.037,111.8
2021-05-06T02:10:03,42.805,6.029,0.036,-0.025,0.015,103.0,104.0,101.0,13.3,1505.2,323.9,-0.8,1.8,2470.598,13.28,0.043,124.8
2021-05-06T02:13:03,42.805,6.029,0.027,-0.031,0.008,103.0,102.0,101.0,13.3,1505.2,324.0,-0.8,1.8,2470.602,13.28,0.041,138.9
2021-05-06T02:16:03,42.805,6.029,0.027,-0.023,0.023,101.0,103.0,100.0,13.4,1505.2,325.7,-0.8,1.8,2470.605,13.28,0.035,130.4
2021-05-06T02:19:03,42.805,6.029,0.042,-0.015,0.029,103.0,103.0,101.0,13.3,1505.2,323.9,-0.7,1.8,2470.59,13.28,0.044,109.6
2021-05-06T02:22:03,42.805,6.029,0.017,-0.008,-0.011,103.0,104.0,100.0,13.4,1505.2,325.5,-0.7,1.8,2470.606,13.28,0.018,115.2
2021-05-06T02:25:03,42.805,6.029,0.031,-0.017,0.012,103.0,103.0,102.0,13.4,1505.2,325.0,-0.7,1.8,2470.58,13.28,0.035,118.7
2021-05-06T02:28:03,42.805,6.029,0.041,-0.014,0.0,102.0,104.0,101.0,13.3,1505.2,326.7,-0.8,1.8,2470.611,13.28,0.043,108.9
2021-05-06T02:31:03,42.805,6.029,0.004,-0.008,0.013,101.0,103.0,101.0,13.3,1505.2,327.6,-0.8,1.8,2470.585,13.28,0.008,153.4
2021-05-06T02:34:03,42.805,6.029,0.036,-0.023,0.028,103.0,102.0,101.0,13.3,1505.2,327.5,-0.8,1.8,2470.629,13.28,0.042,122.6
2021-05-06T02:37:03,42.805,6.029,0.049,-0.024,0.044,103.0,104.0,101.0,13.4,1505.2,326.8,-0.7,1.8,2470.608,13.28,0.054,116.1
2021-05-06T02:40:03,42.805,6.029,0.054,-0.036,0.015,103.0,102.0,101.0,13.4,1505.2,325.3,-0.8,1.8,2470.598,13.28,0.064,123.7
2021-05-06T02:43:03,42.805,6.029,0.03,-0.03,0.027,102.0,103.0,101.0,13.4,1505.2,326.9,-0.8,1.8,2470.616,13.28,0.042,135.0
2021-05-06T02:46:03,42.805,6.029,0.035,-0.035,0.011,102.0,104.0,101.0,13.3,1505.2,324.7,-0.7,1.8,2470.604,13.28,0.049,135.0
2021-05-06T02:49:03,42.805,6.029,0.02,-0.024,0.003,102.0,103.0,102.0,13.4,1505.2,329.1,-0.7,1.9,2470.599,13.28,0.031,140.2
2021-05-06T02:52:03,42.805,6.029,0.033,-0.016,0.028,102.0,103.0,101.0,13.4,1505.2,325.4,-0.8,1.8,2470.633,13.28,0.036,115.9
2021-05-06T02:55:03,42.805,6.029,0.034,-0.021,0.016,102.0,103.0,101.0,13.3,1505.2,326.3,-0.8,1.8,2470.614,13.28,0.039,121.7
2021-05-06T02:58:03,42.805,6.029,0.004,-0.02,0.029,103.0,102.0,100.0,13.4,1505.2,328.0,-0.8,1.8,2470.556,13.28,0.02,168.7
2021-05-06T03:04:03,42.805,6.029,0.026,-0.025,0.013,103.0,103.0,101.0,13.4,1505.2,325.5,-0.7,1.8,2470.622,13.28,0.036,133.9
2021-05-06T03:07:03,42.805,6.029,0.034,-0.021,0.034,102.0,102.0,101.0,13.4,1505.2,326.1,-0.7,1.8,2470.642,13.28,0.039,121.7
2021-05-06T03:10:03,42.805,6.029,0.035,-0.028,0.027,101.0,103.0,102.0,13.4,1505.2,328.1,-0.7,1.8,2470.612,13.28,0.044,128.7
2021-05-06T03:13:03,42.805,6.029,0.034,-0.037,-0.018,103.0,104.0,100.0,13.4,1505.2,329.2,-0.8,1.8,2470.582,13.28,0.05,137.4
2021-05-06T03:16:03,42.805,6.029,0.041,-0.033,0.011,102.0,104.0,101.0,13.4,1505.2,326.2,-0.8,1.8,2470.634,13.28,0.052,128.8
2021-05-06T03:19:03,42.805,6.029,0.008,-0.035,0.018,103.0,102.0,101.0,13.3,1505.2,326.1,-0.7,1.8,2470.596,13.28,0.035,167.1
2021-05-06T03:22:03,42.805,6.029,0.027,-0.035,-0.008,103.0,104.0,100.0,13.4,1505.2,327.6,-0.8,1.8,2470.61,13.28,0.044,142.3
2021-05-06T03:25:03,42.805,6.029,0.048,-0.025,0.005,103.0,102.0,101.0,13.4,1505.2,327.7,-0.7,1.8,2470.61,13.28,0.054,117.5
2021-05-06T03:28:03,42.805,6.029,0.043,-0.042,0.0,101.0,102.0,101.0,13.4,1505.2,325.6,-0.8,1.8,2470.616,13.28,0.06,134.3
2021-05-06T03:31:03,42.805,6.029,0.048,-0.039,0.028,102.0,104.0,100.0,13.3,1505.2,324.3,-0.7,1.9,2470.6,13.28,0.061,129.1
2021-05-06T03:34:03,42.805,6.029,0.01,-0.02,-0.017,102.0,102.0,102.0,13.3,1505.2,326.9,-0.7,1.8,2470.608,13.28,0.022,153.4
2021-05-06T03:37:03,42.805,6.029,0.04,-0.041,0.006,104.0,103.0,101.0,13.3,1505.2,324.5,-0.7,1.9,2470.6,13.28,0.057,135.7
2021-05-06T03:40:03,42.805,6.029,0.032,-0.026,0.025,102.0,102.0,101.0,13.4,1505.2,325.4,-0.7,1.9,2470.573,13.28,0.041,129.1
2021-05-06T03:43:03,42.805,6.029,0.033,-0.032,0.006,103.0,104.0,100.0,13.4,1505.2,328.4,-0.8,1.8,2470.612,13.28,0.045,134.1
2021-05-06T03:46:03,42.805,6.029,0.034,-0.041,0.03,101.0,102.0,101.0,13.4,1505.2,326.8,-0.8,1.9,2470.635,13.28,0.053,140.3
2021-05-06T03:49:03,42.805,6.029,0.04,-0.039,0.012,102.0,102.0,102.0,13.4,1505.2,326.0,-0.7,1.8,2470.646,13.28,0.055,134.3
2021-05-06T03:52:03,42.805,6.029,0.044,-0.014,0.035,103.0,102.0,101.0,13.4,1505.2,327.5,-0.8,1.8,2470.667,13.28,0.046,107.6
2021-05-06T03:55:03,42.805,6.029,0.027,-0.016,0.017,103.0,102.0,101.0,13.4,1505.2,324.4,-0.8,1.8,2470.622,13.28,0.031,120.7
2021-05-06T03:58:03,42.805,6.029,0.048,-0.028,0.001,103.0,103.0,101.0,13.4,1505.2,327.6,-0.8,1.8,2470.594,13.28,0.055,120.3
2021-05-06T04:04:03,42.805,6.029,0.049,-0.035,0.023,103.0,101.0,100.0,13.4,1505.2,324.3,-0.7,1.8,2470.615,13.28,0.06,125.5
2021-05-06T04:07:03,42.805,6.029,0.047,-0.028,0.015,102.0,103.0,101.0,13.3,1505.2,325.5,-0.8,1.9,2470.666,13.28,0.054,120.8
2021-05-06T04:10:03,42.805,6.029,0.019,-0.027,-0.005,102.0,103.0,101.0,13.4,1505.2,327.0,-0.8,1.9,2470.622,13.28,0.033,144.9
2021-05-06T04:13:03,42.805,6.029,0.031,-0.036,0.005,102.0,102.0,101.0,13.4,1505.2,328.0,-0.7,1.9,2470.648,13.28,0.047,139.3
2021-05-06T04:16:03,42.805,6.029,0.05,-0.05,0.014,102.0,102.0,101.0,13.3,1505.2,325.9,-0.7,1.8,2470.659,13.28,0.07,135.0
2021-05-06T04:19:03,42.805,6.029,0.051,-0.044,-0.001,102.0,102.0,101.0,13.4,1505.2,327.7,-0.7,1.8,2470.647,13.28,0.067,130.8
2021-05-06T04:22:03,42.805,6.029,0.037,-0.041,0.028,103.0,102.0,100.0,13.3,1505.2,326.0,-0.8,1.8,2470.615,13.28,0.055,137.9
2021-05-06T04:25:03,42.805,6.029,0.036,-0.021,0.025,102.0,102.0,100.0,13.4,1505.2,326.7,-0.8,1.8,2470.63,13.28,0.041,120.3
2021-05-06T04:28:03,42.805,6.029,0.051,-0.042,0.006,102.0,102.0,101.0,13.4,1505.2,326.4,-0.8,1.8,2470.641,13.28,0.066,129.5
2021-05-06T04:31:03,42.805,6.029,0.036,-0.034,0.009,101.0,102.0,100.0,13.4,1505.2,326.8,-0.8,1.8,2470.633,13.28,0.049,133.4
2021-05-06T04:34:03,42.805,6.029,0.017,-0.009,0.042,102.0,102.0,101.0,13.3,1505.2,328.4,-0.7,1.8,2470.628,13.28,0.019,117.9
2021-05-06T04:37:03,42.805,6.029,0.046,-0.052,0.011,102.0,103.0,100.0,13.4,1505.2,325.9,-0.8,1.8,2470.634,13.28,0.069,138.5
2021-05-06T04:40:03,42.805,6.029,0.067,-0.032,0.015,103.0,102.0,101.0,13.4,1505.2,325.1,-0.8,1.8,2470.593,13.28,0.074,115.5
2021-05-06T04:43:03,42.805,6.029,0.006,-0.046,-0.025,101.0,102.0,101.0,13.4,1505.2,323.8,-0.8,1.8,2470.624,13.28,0.046,172.6
2021-05-06T04:46:03,42.805,6.029,0.06,-0.051,-0.009,102.0,102.0,100.0,13.4,1505.2,324.7,-0.8,1.8,2470.634,13.28,0.078,130.4
2021-05-06T04:49:03,42.805,6.029,0.045,-0.05,0.038,102.0,102.0,100.0,13.4,1505.2,328.4,-0.7,1.8,2470.617,13.28,0.067,138.0
2021-05-06T04:52:03,42.805,6.029,0.057,-0.034,0.028,102.0,102.0,101.0,13.3,1505.2,325.8,-0.7,1.8,2470.641,13.28,0.066,120.8
2021-05-06T04:55:03,42.805,6.029,0.025,-0.03,-0.012,103.0,102.0,101.0,13.4,1505.2,327.6,-0.7,1.8,2470.601,13.28,0.039,140.2
2021-05-06T04:58:03,42.805,6.029,0.016,-0.016,0.046,103.0,103.0,101.0,13.4,1505.2,327.4,-0.7,1.8,2470.644,13.28,0.022,135.0
2021-05-06T05:04:03,42.805,6.029,0.032,-0.039,0.005,103.0,103.0,101.0,13.4,1505.2,327.9,-0.7,1.9,2470.639,13.28,0.05,140.6
2021-05-06T05:07:03,42.805,6.029,0.046,-0.033,0.033,102.0,102.0,100.0,13.3,1505.2,327.0,-0.7,1.8,2470.627,13.28,0.056,125.7
2021-05-06T05:10:03,42.805,6.029,0.047,-0.029,0.038,103.0,101.0,101.0,13.4,1505.2,326.8,-0.7,1.8,2470.627,13.28,0.055,121.7
2021-05-06T05:13:03,42.805,6.029,0.031,-0.026,0.039,102.0,102.0,100.0,13.3,1505.2,324.8,-0.8,1.8,2470.632,13.28,0.04,130.0
2021-05-06T05:16:03,42.805,6.029,0.049,-0.033,0.027,103.0,102.0,102.0,13.4,1505.2,327.5,-0.7,1.8,2470.613,13.28,0.059,124.0
2021-05-06T05:19:03,42.805,6.029,0.055,-0.044,0.024,103.0,101.0,101.0,13.3,1505.2,327.0,-0.8,1.8,2470.608,13.28,0.07,128.7
2021-05-06T05:22:03,42.805,6.029,0.055,-0.037,0.027,102.0,102.0,100.0,13.4,1505.2,325.6,-0.8,1.8,2470.63,13.28,0.066,123.9
2021-05-06T05:25:03,42.805,6.029,0.051,-0.054,-0.008,103.0,103.0,100.0,13.3,1505.2,326.7,-0.7,1.8,2470.624,13.28,0.074,136.6
2021-05-06T05:28:03,42.805,6.029,0.045,-0.036,0.025,102.0,102.0,101.0,13.4,1505.2,328.1,-0.7,1.8,2470.604,13.28,0.057,128.7
2021-05-06T05:31:03,42.805,6.029,0.026,-0.026,0.017,103.0,101.0,101.0,13.4,1505.2,328.0,-0.7,1.8,2470.624,13.28,0.036,135.0
2021-05-06T05:34:03,42.805,6.029,0.042,-0.04,-0.009,102.0,103.0,101.0,13.4,1505.2,327.6,-0.7,1.8,2470.64,13.28,0.057,133.6
2021-05-06T05:37:03,42.805,6.029,0.03,-0.053,0.009,102.0,103.0,101.0,13.3,1505.2,328.0,-0.8,1.8,2470.619,13.28,0.06,150.5
2021-05-06T05:40:03,42.805,6.029,0.039,-0.047,-0.026,102.0,102.0,102.0,13.4,1505.2,324.0,-0.8,1.8,2470.583,13.28,0.061,140.3
2021-05-06T05:43:03,42.805,6.029,0.053,-0.054,-0.001,101.0,102.0,102.0,13.3,1505.2,324.6,-0.7,1.8,2470.625,13.28,0.075,135.5
2021-05-06T05:46:03,42.805,6.029,0.028,-0.023,-0.002,102.0,102.0,101.0,13.4,1505.2,324.9,-0.7,1.9,2470.618,13.28,0.036,129.4
2021-05-06T05:49:03,42.805,6.029,0.007,-0.041,-0.005,102.0,103.0,100.0,13.3,1505.2,327.0,-0.7,1.8,2470.648,13.28,0.041,170.3
2021-05-06T05:52:03,42.805,6.029,0.042,-0.044,0.019,102.0,102.0,101.0,13.4,1505.2,328.0,-0.7,1.8,2470.617,13.28,0.06,136.3
2021-05-06T05:55:03,42.805,6.029,0.036,-0.042,0.011,102.0,102.0,100.0,13.4,1505.2,326.3,-0.7,1.8,2470.589,13.28,0.055,139.4
2021-05-06T05:58:03,42.805,6.029,0.04,-0.04,0.021,104.0,101.0,101.0,13.3,1505.2,325.7,-0.7,1.8,2470.585,13.28,0.056,135.0
2021-05-06T06:04:03,42.805,6.029,0.03,-0.035,0.027,101.0,102.0,101.0,13.4,1505.2,325.7,-0.7,1.8,2470.62,13.28,0.046,139.4
2021-05-06T06:07:03,42.805,6.029,0.043,-0.052,0.014,101.0,103.0,101.0,13.3,1505.2,325.0,-0.7,1.8,2470.627,13.28,0.067,140.4
2021-05-06T06:10:03,42.805,6.029,0.014,-0.036,-0.006,103.0,103.0,101.0,13.4,1505.2,324.8,-0.8,1.8,2470.606,13.28,0.038,158.8
2021-05-06T06:13:03,42.805,6.029,0.042,-0.038,-0.002,103.0,103.0,101.0,13.4,1505.2,324.5,-0.8,1.8,2470.608,13.28,0.056,132.1
2021-05-06T06:16:03,42.805,6.029,0.041,-0.014,0.048,103.0,102.0,101.0,13.4,1505.2,325.1,-0.8,1.9,2470.611,13.28,0.043,108.9
2021-05-06T06:19:03,42.805,6.029,0.035,-0.021,0.001,104.0,102.0,100.0,13.4,1505.2,324.2,-0.8,1.8,2470.603,13.28,0.04,121.0
2021-05-06T06:22:03,42.805,6.029,0.011,-0.029,-0.035,102.0,102.0,100.0,13.4,1505.2,329.2,-0.8,1.8,2470.579,13.28,0.031,159.2
2021-05-06T06:25:03,42.805,6.029,0.026,-0.03,0.009,103.0,102.0,101.0,13.4,1505.2,328.0,-0.8,1.9,2470.58,13.28,0.039,139.1
2021-05-06T06:28:03,42.805,6.029,0.054,-0.035,0.05,102.0,102.0,99.0,13.3,1505.2,325.6,-0.8,1.8,2470.596,13.28,0.064,123.0
2021-05-06T06:31:03,42.805,6.029,0.038,-0.03,0.022,101.0,102.0,100.0,13.3,1505.2,326.8,-0.7,1.8,2470.595,13.28,0.048,128.3
2021-05-06T06:34:03,42.805,6.029,0.035,-0.037,0.03,103.0,102.0,99.0,13.4,1505.2,325.1,-0.8,1.8,2470.592,13.28,0.05,136.6
2021-05-06T06:37:03,42.805,6.029,0.037,-0.054,-0.016,101.0,102.0,101.0,13.3,1505.2,326.9,-0.7,1.8,2470.569,13.28,0.065,145.6
2021-05-06T06:40:03,42.805,6.029,0.053,-0.042,0.029,103.0,103.0,101.0,13.4,1505.2,325.8,-0.8,1.8,2470.572,13.28,0.067,128.4
2021-05-06T06:43:03,42.805,6.029,0.041,-0.026,0.026,102.0,102.0,101.0,13.3,1505.2,327.6,-0.8,1.8,2470.553,13.28,0.048,122.4
2021-05-06T06:46:03,42.805,6.029,0.05,-0.025,0.03,103.0,102.0,100.0,13.4,1505.2,327.3,-0.7,1.9,2470.599,13.28,0.055,116.6
2021-05-06T06:49:03,42.805,6.029,0.035,-0.048,0.019,102.0,101.0,101.0,13.3,1505.2,327.7,-0.7,1.8,2470.571,13.28,0.059,143.9
2021-05-06T06:52:03,42.805,6.029,0.034,-0.043,-0.006,103.0,101.0,101.0,13.4,1505.2,327.6,-0.7,1.9,2470.579,13.28,0.054,141.7
2021-05-06T06:55:03,42.805,6.029,0.047,-0.029,0.03,100.0,103.0,101.0,13.4,1505.2,328.2,-0.8,1.9,2470.574,13.28,0.055,121.7
2021-05-06T06:58:03,42.805,6.029,0.056,-0.04,0.029,102.0,101.0,100.0,13.4,1505.2,327.3,-0.8,1.8,2470.569,13.28,0.068,125.5
2021-05-06T07:04:03,42.805,6.029,0.033,-0.042,0.014,102.0,102.0,101.0,13.4,1505.2,327.2,-0.8,1.9,2470.607,13.28,0.053,141.8
2021-05-06T07:07:03,42.805,6.029,0.047,-0.052,0.016,102.0,102.0,101.0,13.4,1505.2,327.5,-0.7,1.8,2470.549,13.28,0.07,137.9
2021-05-06T07:10:03,42.805,6.029,0.053,-0.035,0.008,102.0,103.0,101.0,13.4,1505.2,325.9,-0.7,1.8,2470.585,13.28,0.063,123.4
2021-05-06T07:13:03,42.805,6.029,0.045,-0.041,0.015,103.0,101.0,101.0,13.3,1505.2,327.8,-0.7,1.9,2470.538,13.28,0.06,132.3
2021-05-06T07:16:03,42.805,6.029,0.038,-0.042,0.05,102.0,102.0,101.0,13.4,1505.2,323.8,-0.8,1.8,2470.571,13.28,0.056,137.9
2021-05-06T07:19:03,42.805,6.029,0.034,-0.035,0.03,101.0,103.0,102.0,13.4,1505.2,327.8,-0.7,1.8,2470.52,13.28,0.048,135.8
2021-05-06T07:22:03,42.805,6.029,0.033,-0.049,-0.009,103.0,102.0,101.0,13.4,1505.2,327.6,-0.8,1.8,2470.56,13.28,0.059,146.0
2021-05-06T07:25:03,42.805,6.029,0.031,-0.041,0.025,103.0,103.0,102.0,13.4,1505.2,326.2,-0.8,1.9,2470.537,13.28,0.051,142.9
2021-05-06T07:28:03,42.805,6.029,0.03,-0.03,0.027,104.0,103.0,101.0,13.4,1505.2,326.5,-0.7,1.8,2470.574,13.28,0.042,135.0
2021-05-06T07:31:03,42.805,6.029,0.043,-0.038,0.013,102.0,103.0,101.0,13.4,1505.2,326.1,-0.7,1.8,2470.548,13.28,0.057,131.5
2021-05-06T07:34:03,42.805,6.029,0.065,-0.038,0.034,102.0,103.0,101.0,13.4,1505.2,325.9,-0.8,1.8,2470.534,13.28,0.075,120.3
2021-05-06T07:37:03,42.805,6.029,0.052,-0.05,0.017,103.0,104.0,100.0,13.3,1505.2,327.9,-0.7,1.8,2470.538,13.28,0.072,133.9
2021-05-06T07:40:03,42.805,6.029,0.054,-0.049,0.014,102.0,102.0,100.0,13.3,1505.2,326.8,-0.8,1.8,2470.553,13.28,0.072,132.2
2021-05-06T07:43:03,42.805,6.029,0.047,-0.03,0.009,101.0,104.0,102.0,13.4,1505.2,324.7,-0.8,1.8,2470.547,13.28,0.055,122.6
2021-05-06T07:46:03,42.805,6.029,0.036,-0.038,-0.004,101.0,102.0,101.0,13.4,1505.2,324.1,-0.7,1.8,2470.569,13.28,0.052,136.5
2021-05-06T07:49:03,42.805,6.029,0.041,-0.027,0.025,102.0,101.0,102.0,13.4,1505.2,326.6,-0.8,1.8,2470.502,13.28,0.049,123.4
2021-05-06T07:52:03,42.805,6.029,0.047,-0.033,0.011,102.0,103.0,102.0,13.4,1505.2,323.8,-0.8,1.8,2470.501,13.28,0.057,125.1
2021-05-06T07:55:03,42.805,6.029,0.028,-0.047,0.0,103.0,103.0,101.0,13.4,1505.2,324.7,-0.7,1.8,2470.54,13.28,0.054,149.2
2021-05-06T07:58:03,42.805,6.029,0.043,-0.05,0.008,102.0,102.0,101.0,13.3,1505.2,324.5,-0.8,1.8,2470.563,13.28,0.065,139.3
2021-05-06T08:04:03,42.805,6.029,0.035,-0.035,0.002,103.0,103.0,101.0,13.3,1505.2,326.9,-0.7,1.8,2470.535,13.28,0.049,135.0
2021-05-06T08:07:03,42.805,6.029,0.034,-0.042,0.028,102.0,102.0,101.0,13.4,1505.2,326.6,-0.7,1.8,2470.552,13.28,0.054,141.0
2021-05-06T08:10:03,42.805,6.029,0.015,-0.045,-0.009,103.0,102.0,101.0,13.4,1505.2,326.8,-0.8,1.9,2470.558,13.28,0.047,161.6
2021-05-06T08:13:03,42.805,6.029,0.05,-0.018,0.024,102.0,103.0,101.0,13.4,1505.2,324.0,-0.7,1.8,2470.503,13.28,0.053,109.8
2021-05-06T08:16:03,42.805,6.029,0.053,-0.04,0.008,102.0,103.0,101.0,13.3,1505.2,327.1,-0.8,1.8,2470.523,13.28,0.066,127.0
2021-05-06T08:19:03,42.805,6.029,0.029,-0.054,-0.011,101.0,103.0,102.0,13.4,1505.2,329.0,-0.8,1.9,2470.509,13.28,0.061,151.8
2021-05-06T08:22:03,42.805,6.029,0.016,-0.022,0.017,103.0,102.0,102.0,13.4,1505.2,324.7,-0.7,1.8,2470.516,13.28,0.027,144.0
2021-05-06T08:25:03,42.805,6.029,0.044,-0.041,0.005,103.0,102.0,101.0,13.4,1505.2,324.2,-0.8,1.8,2470.531,13.28,0.06,133.0
2021-05-06T08:28:03,42.805,6.029,0.08,-0.035,0.017,102.0,103.0,100.0,13.4,1505.2,326.9,-0.8,1.8,2470.538,13.28,0.087,113.6
2021-05-06T08:31:03,42.805,6.029,0.039,-0.034,-0.008,103.0,102.0,102.0,13.3,1505.2,323.9,-0.7,1.8,2470.507,13.28,0.051,131.1
2021-05-06T08:34:03,42.805,6.029,0.056,-0.044,0.0,103.0,102.0,101.0,13.4,1505.2,324.6,-0.7,1.8,2470.489,13.28,0.071,128.2
2021-05-06T08:37:03,42.805,6.029,0.05,-0.033,0.004,103.0,103.0,100.0,13.4,1505.2,324.1,-0.8,1.8,2470.541,13.28,0.059,123.4
2021-05-06T08:40:03,42.805,6.029,0.035,-0.023,-0.003,103.0,102.0,101.0,13.4,1505.2,324.8,-0.8,1.8,2470.518,13.28,0.041,123.3
2021-05-06T08:43:03,42.805,6.029,0.045,-0.044,0.004,102.0,102.0,100.0,13.3,1505.2,328.2,-0.7,1.8,2470.497,13.28,0.062,134.4
2021-05-06T08:46:03,42.805,6.029,0.06,-0.045,0.02,104.0,100.0,101.0,13.4,1505.2,325.4,-0.8,1.8,2470.49,13.28,0.074,126.9
2021-05-06T08:49:03,42.805,6.029,0.028,-0.036,-0.01,101.0,102.0,101.0,13.4,1505.2,328.1,-0.7,1.8,2470.496,13.28,0.045,142.1
2021-05-06T08:52:03,42.805,6.029,0.036,-0.024,0.025,102.0,101.0,101.0,13.4,1505.2,325.9,-0.8,1.8,2470.512,13.28,0.043,123.7
2021-05-06T08:55:03,42.805,6.029,0.039,-0.041,0.042,103.0,101.0,102.0,13.3,1505.2,328.0,-0.8,1.8,2470.485,13.28,0.056,136.4
2021-05-06T08:58:03,42.805,6.029,0.061,-0.02,0.009,102.0,102.0,102.0,13.3,1505.2,327.1,-0.8,1.8,2470.505,13.28,0.064,108.1
2021-05-06T09:04:03,42.805,6.029,0.053,-0.037,-0.006,103.0,102.0,103.0,13.4,1505.2,328.0,-0.7,1.8,2470.487,13.28,0.064,124.9
2021-05-06T09:07:03,42.805,6.029,0.062,-0.048,0.022,103.0,102.0,102.0,13.3,1505.2,329.0,-0.7,1.8,2470.487,13.28,0.078,127.7
2021-05-06T09:10:03,42.805,6.029,0.028,-0.038,0.015,103.0,101.0,101.0,13.4,1505.2,325.6,-0.7,1.9,2470.539,13.28,0.047,143.6
2021-05-06T09:13:03,42.805,6.029,0.047,-0.036,0.017,102.0,103.0,102.0,13.4,1505.2,324.0,-0.7,1.8,2470.48,13.28,0.059,127.5
2021-05-06T09:16:03,42.805,6.029,0.015,-0.041,0.0,102.0,104.0,101.0,13.4,1505.2,327.5,-0.7,1.9,2470.509,13.28,0.043,159.9
2021-05-06T09:19:03,42.805,6.029,0.041,-0.041,0.026,102.0,103.0,102.0,13.4,1505.2,328.1,-0.7,1.9,2470.5,13.28,0.057,135.0
2021-05-06T09:22:03,42.805,6.029,0.028,-0.065,-0.017,102.0,102.0,102.0,13.4,1505.2,326.4,-0.8,1.8,2470.498,13.28,0.07,156.7
2021-05-06T09:25:03,42.805,6.029,0.03,-0.025,0.02,103.0,101.0,101.0,13.3,1505.2,326.9,-0.8,1.9,2470.502,13.28,0.039,129.8
2021-05-06T09:28:03,42.805,6.029,0.018,-0.039,0.004,103.0,102.0,102.0,13.3,1505.2,327.9,-0.7,1.9,2470.479,13.28,0.042,155.2
2021-05-06T09:31:03,42.805,6.029,0.032,-0.042,0.011,102.0,103.0,103.0,13.3,1505.2,327.2,-0.7,1.8,2470.455,13.28,0.052,142.7
2021-05-06T09:34:03,42.805,6.029,0.045,-0.036,0.006,103.0,104.0,101.0,13.3,1505.2,327.1,-0.8,1.8,2470.484,13.28,0.057,128.7
2021-05-06T09:37:03,42.805,6.029,0.042,-0.05,0.002,101.0,102.0,101.0,13.4,1505.2,326.1,-0.7,1.8,2470.49,13.28,0.065,140.0
2021-05-06T09:40:03,42.805,6.029,0.045,-0.049,0.011,103.0,104.0,101.0,13.3,1505.2,326.9,-0.7,1.8,2470.479,13.28,0.066,137.4
2021-05-06T09:43:03,42.805,6.029,0.041,-0.044,0.0,103.0,102.0,101.0,13.4,1505.2,328.0,-0.8,1.8,2470.493,13.28,0.06,137.0
2021-05-06T09:46:03,42.805,6.029,0.027,-0.04,0.016,102.0,103.0,101.0,13.4,1505.2,325.1,-0.7,1.8,2470.487,13.28,0.048,146.0
2021-05-06T09:49:03,42.805,6.029,0.019,-0.029,0.047,102.0,102.0,101.0,13.4,1505.2,328.7,-0.7,1.8,2470.469,13.28,0.034,146.8
2021-05-06T09:52:03,42.805,6.029,0.012,-0.033,0.003,102.0,102.0,100.0,13.3,1505.2,328.1,-0.7,1.8,2470.474,13.28,0.035,160.0
2021-05-06T09:55:03,42.805,6.029,0.025,-0.033,0.017,102.0,103.0,102.0,13.4,1505.2,325.3,-0.8,1.8,2470.47,13.28,0.041,142.8
2021-05-06T09:58:03,42.805,6.029,0.056,-0.042,0.01,102.0,102.0,102.0,13.4,1505.2,324.4,-0.7,1.8,2470.467,13.28,0.069,126.9